| time (UTC) | temp F | wind direction | speed MPH | gust MPH | rain 1hr in | rain 24hr in | rain mn in | humidity % | barometer mb |
| 20260506041121 | 50 | 0.0 | 2.0 | 0.00 | 0.11 | 0.00 | 90 | 1009.5 | |
| 20260506035121 | 50 | 45 | 1.0 | 3.0 | 0.00 | 0.11 | 0.00 | 90 | 1009.6 |
| 20260506033120 | 50 | 45 | 2.0 | 5.0 | 0.00 | 0.11 | 0.00 | 90 | 1009.6 |
| 20260506031121 | 50 | 0.0 | 0.0 | 0.00 | 0.11 | 0.00 | 90 | 1009.7 | |
| 20260506025120 | 50 | 45 | 1.0 | 3.0 | 0.00 | 0.11 | 0.00 | 90 | 1009.7 |
| 20260506023120 | 50 | 45 | 1.0 | 4.0 | 0.00 | 0.11 | 0.00 | 90 | 1009.6 |
| 20260506021120 | 50 | 45 | 1.0 | 3.0 | 0.00 | 0.11 | 0.00 | 90 | 1009.7 |
| 20260506015120 | 50 | 45 | 1.0 | 4.0 | 0.00 | 0.11 | 0.00 | 90 | 1009.8 |
| 20260506013120 | 50 | 45 | 1.0 | 4.0 | 0.00 | 0.11 | 0.00 | 89 | 1009.8 |
| 20260506011120 | 50 | 22 | 1.0 | 4.0 | 0.00 | 0.11 | 0.00 | 89 | 1009.9 |
| 20260506005119 | 50 | 22 | 1.0 | 4.0 | 0.00 | 0.11 | 0.00 | 89 | 1010.0 |
| 20260506003120 | 50 | 22 | 1.0 | 4.0 | 0.00 | 0.11 | 0.00 | 89 | 1010.1 |
| 20260506001119 | 51 | 22 | 1.0 | 6.0 | 0.00 | 0.11 | 0.00 | 89 | 1010.2 |
| 20260505235119 | 51 | 22 | 1.0 | 3.0 | 0.00 | 0.10 | 0.00 | 89 | 1010.0 |
| 20260505233120 | 51 | 22 | 1.0 | 4.0 | 0.00 | 0.10 | 0.00 | 89 | 1010.2 |
| 20260505231117 | 51 | 22 | 1.0 | 3.0 | 0.00 | 0.10 | 0.00 | 89 | 1010.3 |
| 20260505225047 | 51 | 22 | 1.0 | 3.0 | 0.00 | 0.10 | 0.00 | 89 | 1010.4 |
| 20260505223047 | 51 | 0 | 1.0 | 4.0 | 0.00 | 0.10 | 0.00 | 89 | 1010.3 |
| 20260505221107 | 52 | 0 | 1.0 | 3.0 | 0.00 | 0.10 | 0.00 | 89 | 1010.3 |
| 20260505215108 | 52 | 0 | 1.0 | 4.0 | 0.00 | 0.10 | 0.10 | 89 | 1010.4 |
| 20260505213117 | 52 | 0.0 | 0.0 | 0.00 | 0.10 | 0.10 | 89 | 1010.4 | |
| 20260505211117 | 0 | 0.0 | 0.0 | 0.00 | 0.10 | 0.10 | |||
| 20260505210118 | 52 | 45 | 1.0 | 2.0 | 0.00 | 0.10 | 0.10 | 89 | 1010.4 |
| 20260505205117 | 0 | 0.0 | 0.0 | 0.00 | 0.10 | 0.10 | |||
| 20260505203117 | 0 | 0.0 | 0.0 | 0.00 | 0.10 | 0.10 | |||
| 20260505202129 | 53 | 45 | 2.0 | 4.0 | 0.00 | 0.10 | 0.10 | 89 | 1010.2 |
| 20260505201217 | 53 | 45 | 1.0 | 3.0 | 0.00 | 0.10 | 0.10 | 88 | 1010.1 |
| 20260505195120 | 53 | 45 | 2.0 | 7.0 | 0.00 | 0.10 | 0.10 | 88 | 1009.9 |
| 20260505193120 | 53 | 22 | 2.0 | 6.0 | 0.00 | 0.09 | 0.09 | 88 | 1009.7 |
| 20260505191120 | 53 | 22 | 2.0 | 8.0 | 0.01 | 0.09 | 0.09 | 88 | 1009.7 |
| 20260505185120 | 53 | 22 | 2.0 | 8.0 | 0.02 | 0.09 | 0.09 | 88 | 1009.7 |
| 20260505183120 | 53 | 22 | 2.0 | 7.0 | 0.02 | 0.08 | 0.08 | 88 | 1009.6 |
| 20260505181120 | 53 | 22 | 2.0 | 6.0 | 0.02 | 0.07 | 0.07 | 88 | 1009.5 |
| 20260505175121 | 53 | 22 | 2.0 | 9.0 | 0.02 | 0.07 | 0.07 | 87 | 1009.5 |
| 20260505173121 | 54 | 22 | 3.0 | 8.0 | 0.02 | 0.06 | 0.06 | 87 | 1009.6 |
| 20260505171120 | 54 | 45 | 2.0 | 7.0 | 0.03 | 0.05 | 0.05 | 87 | 1009.7 |
| 20260505165119 | 54 | 45 | 3.0 | 9.0 | 0.03 | 0.04 | 0.04 | 87 | 1009.8 |
| 20260505163120 | 55 | 45 | 3.0 | 8.0 | 0.03 | 0.03 | 0.03 | 86 | 1009.6 |
| 20260505161119 | 55 | 45 | 4.0 | 11.0 | 0.02 | 0.02 | 0.02 | 86 | 1009.5 |
| 20260505153120 | 55 | 45 | 2.0 | 5.0 | 0.00 | 0.00 | 0.00 | 86 | 1009.4 |
| 20260505151119 | 55 | 45 | 3.0 | 10.0 | 0.00 | 0.00 | 0.00 | 85 | 1009.5 |
| 20260505123119 | 56 | 22 | 3.0 | 10.0 | 0.00 | 0.00 | 0.00 | 86 | 1009.1 |
| 20260505121119 | 56 | 45 | 4.0 | 12.0 | 0.00 | 0.00 | 0.00 | 86 | 1009.0 |
| 20260505115119 | 56 | 45 | 3.0 | 9.0 | 0.00 | 0.00 | 0.00 | 86 | 1009.2 |
| 20260505113119 | 56 | 45 | 4.0 | 11.0 | 0.00 | 0.00 | 0.00 | 86 | 1009.3 |
| 20260505111118 | 55 | 22 | 2.0 | 8.0 | 0.00 | 0.00 | 0.00 | 86 | 1009.3 |
| 20260505101119 | 55 | 45 | 3.0 | 8.0 | 0.00 | 0.00 | 0.00 | 85 | 1009.4 |
| 20260505095120 | 56 | 45 | 2.0 | 9.0 | 0.00 | 0.00 | 0.00 | 85 | 1009.5 |
| 20260505093119 | 56 | 45 | 3.0 | 7.0 | 0.00 | 0.00 | 0.00 | 85 | 1009.4 |
| 20260505091119 | 56 | 45 | 3.0 | 10.0 | 0.00 | 0.00 | 0.00 | 85 | 1009.4 |
| 20260505085120 | 55 | 45 | 2.0 | 7.0 | 0.00 | 0.00 | 0.00 | 86 | 1009.4 |
| 20260505083119 | 55 | 22 | 3.0 | 10.0 | 0.00 | 0.00 | 0.00 | 87 | 1009.4 |
| 20260505081119 | 54 | 45 | 3.0 | 9.0 | 0.00 | 0.00 | 0.00 | 88 | 1009.4 |
| 20260505075120 | 54 | 45 | 1.0 | 5.0 | 0.00 | 0.00 | 0.00 | 88 | 1009.6 |
| 20260505073119 | 53 | 45 | 2.0 | 8.0 | 0.00 | 0.00 | 0.00 | 88 | 1009.5 |
| 20260505071118 | 53 | 45 | 2.0 | 7.0 | 0.00 | 0.00 | 0.00 | 88 | 1009.6 |
| 20260505065120 | 53 | 22 | 1.0 | 4.0 | 0.00 | 0.00 | 0.00 | 88 | 1009.6 |
| 20260505063121 | 52 | 0.0 | 4.0 | 0.00 | 0.00 | 0.00 | 89 | 1009.6 | |
| 20260505061121 | 52 | 22 | 1.0 | 5.0 | 0.00 | 0.00 | 0.00 | 88 | 1009.6 |
| 20260505055120 | 52 | 45 | 1.0 | 4.0 | 0.00 | 0.00 | 0.00 | 88 | 1009.6 |
| 20260505053121 | 52 | 45 | 1.0 | 4.0 | 0.00 | 0.00 | 0.00 | 88 | 1009.5 |
| 20260505051121 | 52 | 45 | 1.0 | 4.0 | 0.00 | 0.00 | 0.00 | 88 | 1009.5 |